Powrót do katalogu

KUIPER-00170

AktywnyŁącznośćLEO
NORAD 65783·PAYLOAD·🇺🇸 United States

Wystrzelony Sep 25, 2025 z Cape Canaveral Space Force Station

Loading…

Następne Przeloty (najbliższe 24 godziny)

TLE

ŚwieżeSource: CelesTrak SupGP

Epoka: Sep 14, 2026, 21:13 UTC

1 65783C 25217X   26257.88467593  .00001818  00000+0  23810-3 0  2579
2 65783  51.8977 281.4483 0000529  73.0359 346.6888 14.79914050    15

Śledź KUIPER-00170 w czasie rzeczywistym z AllMySat

Download on the App Store